Weather History for Sisseton, SD

Change the Weather History Date:

Thursday, February 14, 2013

  Actual Average Record
Temperature  
Mean Temperature 14 °F 18 °F  
Max Temperature 26 °F 27 °F 53 °F (1999)
Min Temperature 2 °F 8 °F -26 °F (1936)
Degree Days  
Heating Degree Days 51 47  
Month to date heating degree days 670 689  
Since 1 July heating degree days 5622 5635  
Cooling Degree Days 0 0  
Month to date cooling degree days 0 0  
Year to date cooling degree days 0 0  
Moisture  
Dew Point 11 °F    
Average Humidity 85    
Maximum Humidity 96    
Minimum Humidity 73    
Precipitation  
Precipitation 0.03 in 0.01 in 0.50 in (1935)
Month to date precipitation 1.55 0.16  
Year to date precipitation 2.35 0.59  
Snow  
Snow 1.10 in - - ()
Month to date snowfall 19.9  
Since 1 July snowfall 36.1  
Snow Depth 21.00 in    
Sea Level Pressure  
Sea Level Pressure 30.13 in    
Wind  
Wind Speed 13 mph (NNW)    
Max Wind Speed 24 mph    
Max Gust Speed 30 mph    
T = Trace of Precipitation, MM = Missing Value Source: NWS Daily Summary

Daily Weather History Graph

Daily Weather History Graph

Search for Another Location

Airport:

Trip Planner

Search our weather history database for the weather conditions in past years. The results will help you decide how hot, cold, wet, or windy it might be!

Date:

Astronomy

Feb. 14, 2013 Rise Set
Actual Time 7:31 AM CST 5:53 PM CST
Civil Twilight 7:00 AM CST 6:24 PM CST
Nautical Twilight 6:25 AM CST 6:59 PM CST
Astronomical Twilight 5:51 AM CST 7:33 PM CST
Moon 9:16 AM CST (2/14) 11:16 PM CST (2/14)
Length of Visible Light 11h 23m
Length of Day
10h 22m
Waxing Crescent, 22% of the Moon is Illuminated
Feb 14
Waxing Crescent
Feb 17
First Quarter
Feb 25
Full
Mar 4
Last Quarter
Mar 11
New

Hourly Weather History & Observations

Time (CST) Temp. Windchill Dew Point Humidity Pressure Visibility Wind Dir Wind Speed Gust Speed Precip Events Conditions
12:56 AM 26.1 °F 13.6 °F 24.1 °F 92% 29.84 in - NNW 16.1 mph - N/A   Unknown
1:56 AM 23.0 °F 11.1 °F 21.0 °F 92% 29.85 in - NNW 12.7 mph - N/A   Unknown
2:56 AM 21.0 °F 10.6 °F 19.0 °F 92% 29.87 in - North 9.2 mph - N/A   Unknown
3:56 AM 23.0 °F 13.1 °F 21.0 °F 92% 29.87 in - North 9.2 mph - N/A   Unknown
4:56 AM 23.0 °F 14.7 °F 21.0 °F 92% 29.87 in - North 6.9 mph - N/A   Unknown
5:56 AM 23.0 °F 13.9 °F 21.0 °F 92% 29.90 in - North 8.1 mph - N/A   Unknown
6:56 AM 21.0 °F 9.9 °F 18.0 °F 88% 29.94 in - North 10.4 mph - 0.01 in   Unknown
7:56 AM 19.9 °F 8.6 °F 18.0 °F 92% 29.98 in - North 10.4 mph - 0.02 in   Unknown
8:56 AM 19.9 °F 7.3 °F 17.1 °F 89% 30.01 in - North 12.7 mph - N/A   Unknown
9:56 AM 18.0 °F 2.2 °F 14.0 °F 84% 30.06 in - North 18.4 mph - N/A   Unknown
10:56 AM 17.1 °F 1.5 °F 12.9 °F 84% 30.10 in - North 17.3 mph - N/A   Unknown
11:56 AM 16.0 °F -0.4 °F 10.9 °F 81% 30.15 in - North 18.4 mph - N/A   Unknown
12:56 PM 15.1 °F -2.9 °F 10.0 °F 80% 30.18 in - North 21.9 mph - N/A   Unknown
1:56 PM 14.0 °F -3.0 °F 9.0 °F 80% 30.21 in - North 18.4 mph - N/A   Unknown
2:56 PM 15.1 °F -1.6 °F 9.0 °F 77% 30.24 in - North 18.4 mph - N/A   Unknown
3:56 PM 12.9 °F -5.3 °F 8.1 °F 81% 30.27 in - NNW 20.7 mph - N/A   Unknown
4:56 PM 10.9 °F -5.9 °F 6.1 °F 81% 30.30 in - NNW 16.1 mph - N/A   Unknown
5:56 PM 8.1 °F -9.0 °F 3.9 °F 83% 30.33 in - NNW 15.0 mph - N/A   Unknown
6:56 PM 7.0 °F -8.3 °F 1.9 °F 80% 30.35 in - NNW 11.5 mph - N/A   Unknown
7:56 PM 5.0 °F -9.1 °F -0.0 °F 80% 30.36 in - NNW 9.2 mph - N/A   Unknown
8:56 PM 6.1 °F -4.3 °F -0.0 °F 76% 30.36 in - NNW 5.8 mph - N/A   Unknown
9:56 PM 1.9 °F -9.2 °F -0.9 °F 88% 30.36 in - North 5.8 mph - N/A   Unknown
10:56 PM 10.0 °F -5.9 °F 5.0 °F 80% 30.36 in - NNW 13.8 mph - N/A   Unknown
11:56 PM 5.0 °F -10.0 °F 1.9 °F 87% 30.38 in - NW 10.4 mph - N/A   Unknown